THORAD AGENA D DEB, 4645

Orbit data source: Space-Track

THORAD AGENA D DEB, 4645 is space debris in SSO originally from a launch on Wed, 08 Apr 1970 UTC launched from the Air Force Western Test Range (AFWTR). Debris objects in space refer to the collection of defunct objects orbiting the Earth. Examples of debris include non-operational satellites, rocket bodies, and fragments generated from explosions, collisions, or faulty payload assembly.

Loading next visibility...
THORAD AGENA D DEB details
Identifier
4645, 1970-025AD
Orbit
SSO
Last TLE update10 hours ago
Origin
Flag of USGSFC (US)
ManufacturerUnknown
MissionSpacecraft
Bus & MotorUnknown
MassUnknown
Launch date (UTC)
1970-04-08 (55 years ago)
Launch vehicleUnknown
Launch site
Air Force Western Test Range (AFWTR)
Object type
Payload
Rocket body
Debris
Shape & HBRUnknown
Radar Cross SectionSmall (<0.1 m²)

Expand to show TLE details & history

TLE from 10 hours ago
0 THORAD AGENA D DEB
1  4645U 70025AD  24361.04503839  .00000187  00000-0  71834-3 0  9993
2  4645  99.9373  98.5869 0327910 352.7752 183.1302 12.86462483566716
Epoch: 2024-12-26T01:04Z
Definitive object data (Epoch: 2024-12-26T01:04:51.316Z)
Latitude4.14429°
Longitude168.06687°
Altitude1,569.821 km
Speed6.966 km/s
True Right ascension18h 37m 14s
True Declination4° 07' 20"
Sunlit
Object was in daylight at TLE epoch
Visualization TLE readout
Latitude-67.66369°
Longitude12.81585°
Altitude1,214.682 km
Speed7.306 km/s
Apparent Right ascension00h 30m 17s
Apparent Declination-75° 28' 27"
Sunlit
Object is in daylight
Visualization observer readout
Local Sidereal Time10:22:40
Azimuth192.341° SSW
Elevation-51.671°
Doppler factor1
Orbital elements
Apogee altitude1,565.19 km
Perigee altitude1,060.791 km
Semi-major axis7,691.127 km
Eccentricity0.032791
Inclination99.9373°
RAAN98.5869°
Arg. of periapsis352.7752°
True anomaly182.9331°
Mean anomaly183.1302°
Eccentric anomaly183.03086°
Mean motion3.21779 °/min
BSTAR0.00071834
Orbital period111.88 mins
Loading maneuver chart data...

THORAD AGENA D DEB Visibility forecast

Observer location: undefined°, undefined

Span
Click to sort rows by Start time (UTC) header in descending order
Start Az.
Max El. time (UTC)
Max El. Az.
Max El.
End time (UTC)
End Az.
7 mins2024-12-26 17:38:23.368Z62.846° ENE2024-12-26 17:41:23.368Z84.465° E14.104°2024-12-26 17:45:23.368Z113.05° SE
15 mins2024-12-26 19:26:23.368Z20.435° NNE2024-12-26 19:33:23.368Z127.739° SE43.916°2024-12-26 19:41:23.368Z189.366° SSW
11 mins2024-12-26 21:17:23.368Z345.248° N2024-12-26 21:22:23.368Z301.26° NW24.491°2024-12-26 21:28:23.368Z253.276° W
11 mins2024-12-27 06:09:23.368Z142.784° SSE2024-12-27 06:14:23.368Z61.148° ENE40.913°2024-12-27 06:20:23.368Z353.292° N
8 mins2024-12-27 08:01:23.368Z229.371° WSW2024-12-27 08:05:23.368Z273.272° WNW20.644°2024-12-27 08:09:23.368Z311.985° NW
|